Regional Weather Roundup
Issued by NWS

Home | Current Version | Previous Version | Text Only | Print | Product List | Glossary On
Versions: 1 2 3 4 5 6 7 8 9 10 11 12 13 14 15 16 17 18 19 20 21 22 23 24 25 26 27
000
ASCA42 TJSJ 270110
RWRPR
PUERTO RICO/U.S. VIRGIN ISLANDS HOURLY WEATHER ROUNDUP
NATIONAL WEATHER SERVICE SAN JUAN PR
900 PM AST MON JUN 26 2017

PRZ001>002-007>008-010-270200-
PUERTO RICO

CITY           SKY/WX    TMP DP  RH WIND       PRES   REMARKS
SAN JUAN LMM   PTCLDY    82  75  78 E9        30.03R
AGUADILLA      PTCLDY    79  73  83 E9        30.03R
CEIBA          CLOUDY    81  77  89 E6        30.05R
$$

VIZ001>002-270200-
U.S. VIRGIN ISLANDS

CITY           SKY/WX    TMP DP  RH WIND       PRES   REMARKS
CHARLOTTE AMA  CLEAR     84  75  74 E10       30.02R HX  92
CHRISTIANSTED  PTCLDY    82  73  74 NE9       30.02R
$$

HOURLY WEATHER ROUNDUP FOR THE NEWS MEDIA

CITY           SKY/WX    TMP DP  RH WIND       PRES   REMARKS
ORLANDO        LGT RAIN  80  76  87 N3        30.03S
NEW YORK       PTCLDY    69  65  86 S16       29.98F
NEWARK         PTCLDY    75  45  34 SW8       29.96F
CHICAGO        PTCLDY    65  42  43 NW17G25   30.04S
HARTFORD       CLEAR     66  54  65 SW8       29.98R
BOSTON         MOCLDY    74  53  48 SW16      29.96R
DALLAS         CLOUDY    85  68  56 E9        30.01R
PHILADELPHIA   PTCLDY    76  50  40 S6        29.99S
LOS ANGELES    SUNNY     75  57  53 W16       29.88F
WASHINGTON DC  MOCLDY    74  50  42 S5        29.98F



USA.gov is the U.S. government's official web portal to all federal, state and local government web resources and services.